Voltar ao catálogo

COSMOS 706

AtivoMilitarHEO
NORAD 7625·PAYLOAD·🇷🇺 Russia

Lançado Jan 30, 1975 de Plesetsk Cosmodrome

Loading…

Próximas Passagens (próximas 24 horas)

TLE

AtualizadoSource: Space-Track

Época: Sep 14, 2026, 02:00 UTC

1 07625U 75007A   26257.08394737 -.00000868  00000-0  00000-0 0  9995
2 07625  63.9087 144.3210 6840170   3.2989 359.7342  2.00476302238221

Acompanhe COSMOS 706 em tempo real com AllMySat

Download on the App Store